Regional Weather Roundup
Issued by NWS Jackson, KY

Home | Current Version | Previous Version | Text Only | Print | Product List | Glossary Off
Versions: 1 2 3 4 5 6 7 8 9 10 11 12 13 14 15 16 17 18 19 20 21 22 23 24 25 26 27 28

000
ASUS43 KJKL 251910
RWRJKL

EAST KENTUCKY HOURLY WEATHER ROUNDUP
NATIONAL WEATHER SERVICE JACKSON KY
200 PM EST SAT FEB 25 2017

NOTE: "FAIR" INDICATES FEW OR NO CLOUDS BELOW 12,000 FEET WITH
NO SIGNIFICANT WEATHER AND/OR OBSTRUCTIONS TO VISIBILITY.

* THESE REPORTS ARE NOT UNDER NWS QUALITY CONTROL AND MAY NOT
  REPORT WEATHER SUCH AS PRECIPITATION AND FOG.

KYZ079-080-083-085-087-088-110-112-115-119-120-252000
...EASTERN KENTUCKY...

CITY           SKY/WX    TMP DP  RH WIND       PRES   REMARKS
JACKSON        PTSUNNY   43  27  53 NW10G21   29.87R
LONDON         CLOUDY    42  23  46 W12       29.92S
SOMERSET*      PTSUNNY   39  23  52 NW17      29.98R WCI  30
MONTICELLO*    MOSUNNY   43  24  47 W13G25    29.98R
WILLIAMSBURG*  PTCLDY    45  25  45 SW8G20    29.93R
MIDDLESBORO*   MOSUNNY   47  31  53 NW16G23   29.90R
HARLAN APT*    CLOUDY    46  28  49 W14G26    29.86R
PIKE CO APT*   PTSUNNY   46  32  58 W10G23    29.83R
BIG SANDY APT* MOCLDY    48  31  52 W9G22     29.83S
MOREHEAD APT*  CLOUDY    36  21  55 W12G20    29.93R WCI  27
ASHLAND*       CLOUDY    43  25  49 W21G31    29.86R
$$

KYZ035-036-041-042-044-050-067-078-099-252000
...CENTRAL KENTUCKY...

CITY           SKY/WX    TMP DP  RH WIND       PRES   REMARKS
FLEMING/MASON* CLOUDY    34  24  65 W16G25    29.92R WCI  24
DANVILLE*      PTSUNNY   36  21  55 W15G22    29.96S WCI  26
LEXINGTON      CLOUDY    36  21  54 W15       29.94R WCI  27
FRANKFORT      CLOUDY    35  19  52 W12G24    29.94R WCI  27
LOUISVILLE     PTSUNNY   37  19  48 W16G24    29.99S WCI  28
LEBANON*         N/A     37  19  48 W15G25    29.98S WCI  28
GLASGOW*       PTSUNNY   40  21  46 W12G20    30.01S WCI  33
BOWLING GREEN  MOSUNNY   40  18  41 W10G18    30.03F WCI  33
$$

KYZ091>093-OHZ055-061-077-WVZ005-015-034-035-042-252000
...SOUTHERN OHIO/WEST VIRGINIA...

CITY           SKY/WX    TMP DP  RH WIND       PRES   REMARKS
COVINGTON      CLOUDY    32  19  58 W20G26    29.90R WCI  20
COLUMBUS       CLOUDY    38  27  64 W25G32    29.80R WCI  27
DAYTON         CLOUDY    30  20  66 W22       29.85R WCI  17
WILMINGTON     CLOUDY    32  22  66 W22G35    29.85R WCI  19
HUNTINGTON     PTSUNNY   44  25  47 W15G37    29.84R
CHARLESTON     PTSUNNY   48  30  49 W15G31    29.77R
PINEVILLE*     PTSUNNY   50  30  46 MISG      29.79S
BECKLEY        CLOUDY    44  36  73 W12       29.72S
BLUEFIELD      CLOUDY    45  34  65 W13G21    29.72R
LOGAN CO APT*    N/A     48  32  53 W22       29.77S
$$

VAZ002-007-008-TNZ017-027-036-066-071-252000
...SOUTHWEST VIRGINIA/EAST TENNESSEE...

CITY           SKY/WX    TMP DP  RH WIND       PRES   REMARKS
WISE*          MOSUNNY   46  30  53 W18G25    29.79S
JONESVILLE*      N/A     52  32  46 NW15G22   29.86R
ABINGDON*      CLOUDY    55  38  53 W14G20    29.76S
BRISTOL        MOSUNNY   56  33  42 W18G31    29.78S
MORRISTOWN*    CLEAR     54  27  35 W21G26    29.82S
SEVIERVILLE*   CLEAR     55  27  33 W15       29.84S
KNOXVILLE      MOSUNNY   55  30  38 W23       29.86S
LAFOLLETTE*    MOCLDY    48  30  49 NW8G20    29.92R
OAK RIDGE      MOSUNNY   52  26  36 W13G23    29.90S
CROSSVILLE     SUNNY     44  24  45 W18G25    29.92S
NASHVILLE      MOSUNNY   46  17  31 W14G20    30.02F
$$

...KEY TO REMARKS...
VSB - VISIBILITY IN MILES
WCI - WIND CHILL INDEX
HX  - HEAT INDEX

$$




USA.gov is the U.S. government's official web portal to all federal, state and local government web resources and services.